Location: Mahoning Valley Cortese Observatory
(41.2500°N, 80.9800°W)
Time: 20:48:56
(UTC-05:00)

Hubble Space Telescope - Visible Passes

Search period start: 21 November 2017 00:00
Search period end: 01 December 2017 00:00
Orbit: 537 x 541 km, 28.5° (Epoch: 20 November)

Date Brightness Start Highest point End Pass type
(mag) Time Alt. Az. Time Alt. Az. Time Alt. Az.
21 Nov 3.2 05:35:52 11° SSW 05:37:36 14° S 05:39:43 10° SSE visible
22 Nov 3.1 05:26:19 13° SSW 05:27:16 14° S 05:29:20 10° SSE visible
23 Nov 3.1 05:16:45 13° S 05:16:55 13° S 05:18:51 10° SSE visible
24 Nov 3.3 05:07:10 12° S 05:07:10 12° S 05:08:16 10° SSE visible
